Temp
63 63 65 66 62 61 60 59 58 58 57 58 58 58 57 56 53 54 54 65 67 68 68 69 68 68 68 69 69 69 68 68 68 68 67 67 68 68 69 69 70 69 70
63 62 64 60 60 60 58 58 56 55 54 55 55 55 55 56 54 53 54 57 65 66 67 67 67 67 67 67 68 67 67 67 66 66 66 66 66 66 67 68 69 69 69
65 62 60 59 58 58 58 56 54 53 53 54 52 54 54 53 55 54 53 53 56 63 65 66 66 66 66 66 67 67 66 65 64 64 65 65 65 65 66 66 67 68 68
65 62 59 58 58 57 55 53 52 51 49 49 48 50 51 54 54 53 53 52 52 55 60 64 64 64 65 66 66 66 65 64 63 63 63 64 64 64 65 65 66 67 68
66 62 59 57 57 55 53 54 50 49 47 47 51 50 51 51 53 57 53 53 53 52 51 60 60 61 62 63 64 64 64 63 63 62 62 62 63 63 64 65 65 66 67
61 61 58 56 55 53 52 51 50 48 47 46 54 53 50 51 52 51 52 55 52 52 50 51 49 51 60 61 61 62 62 62 61 61 61 61 61 62 62 63 64 65 66
63 60 58 56 54 52 51 51 50 48 46 45 46 47 48 50 51 51 50 49 51 51 51 49 48 47 48 57 58 60 60 61 61 60 60 60 60 61 61 62 63 64 65
59 59 58 55 53 50 50 49 49 47 45 44 43 42 42 46 48 49 48 51 47 48 50 50 48 47 45 45 48 57 58 59 59 59 59 59 60 60 61 62 62 63 64
59 59 57 57 52 51 47 47 47 47 44 44 44 43 41 40 39 45 46 46 46 45 44 46 48 48 47 45 47 49 55 57 58 58 59 59 59 60 61 61 62 63 63
57 58 57 58 52 49 48 47 48 45 45 43 44 47 43 42 38 38 42 43 43 45 42 43 43 45 45 44 49 52 55 56 56 57 58 58 59 59 60 61 61 62 61
60 59 58 55 51 48 49 47 45 45 45 43 42 41 41 40 39 37 34 37 40 42 42 41 42 42 43 43 42 46 54 55 56 56 57 57 58 59 60 60 60 59 59
57 58 57 52 54 51 50 45 45 45 44 43 42 41 40 39 38 36 33 33 34 38 40 41 40 40 41 40 48 51 52 53 54 55 56 56 57 57 58 58 57 57 57
55 56 55 53 51 48 48 45 44 44 43 42 42 40 41 40 40 38 35 33 31 34 36 38 38 40 44 39 40 49 50 50 52 53 54 55 55 54 54 55 55 56 56
56 56 55 52 52 50 46 45 43 42 42 41 41 41 40 40 40 39 36 33 29 30 32 33 38 36 38 38 45 49 40 48 49 50 52 52 51 51 51 52 53 53 54
55 55 54 52 51 50 45 44 43 43 42 41 41 40 39 39 38 37 36 35 31 26 29 30 31 37 37 38 41 43 40 46 48 49 49 49 49 49 50 50 51 51 51
56 54 52 51 48 48 45 43 42 43 42 40 41 39 38 37 37 36 35 34 32 29 26 31 32 33 35 40 41 41 40 45 45 46 47 47 48 48 49 49 49 49 50
54 52 51 50 49 45 44 43 43 42 42 42 39 39 38 37 35 34 33 33 32 29 27 30 32 33 31 33 36 38 39 37 39 45 46 46 47 47 47 47 48 48 48
53 52 51 50 48 45 44 43 43 42 41 40 39 38 37 41 34 33 32 31 30 30 27 28 30 32 31 34 34 33 37 40 38 42 45 45 45 45 45 46 46 47 47
51 51 50 47 46 43 43 42 42 41 40 39 38 36 36 35 33 31 31 30 30 35 29 28 29 32 32 33 32 33 34 35 37 42 43 43 43 43 44 44 45 45 45
50 49 48 46 43 43 44 41 41 38 37 38 38 36 35 34 33 31 31 31 32 29 28 27 28 28 30 32 30 29 30 32 33 37 39 40 41 41 42 42 42 42 42
47 47 45 43 42 43 44 39 39 37 36 36 35 36 36 38 43 41 37 31 30 28 28 25 25 28 29 29 28 30 28 30 31 32 32 31 32 33 34 37 38 39 40
45 44 41 40 41 44 44 44 40 37 36 33 31 33 34 39 38 42 43 43 40 29 22 24 28 27 27 29 29 28 28 26 24 32 27 30 32 31 32 33 38 40 41
42 39 39 41 40 40 43 42 41 36 32 30 31 32 33 39 37 33 37 41 40 41 40 34 28 27 27 29 28 26 28 28 27 30 30 27 31 29 32 35 38 39 40
40 40 40 39 37 40 42 41 40 31 31 31 31 31 30 30 32 35 32 30 30 30 31 32 30 30 30 33 33 32 30 28 29 31 31 24 30 28 31 32 37 38 39
38 38 37 37 36 37 41 41 36 31 31 29 31 31 32 32 38 41 35 26 28 29 36 38 39 39 39 38 37 32 25 23 23 26 30 26 27 26 28 29 31 37 39
37 38 38 36 39 32 42 41 37 32 28 29 30 32 37 37 40 41 35 30 27 27 28 28 29 31 33 30 36 30 26 22 22 21 28 24 25 26 22 28 29 30 30
MSLP
1016.58 1016.90 1017.16 1017.34 1017.78 1018.00 1018.18 1018.44 1018.60 1018.60 1018.52 1018.40 1018.41 1018.50 1018.42 1018.61 1018.90 1019.17 1019.17 1018.81 1019.05 1019.06 1019.01 1019.10 1019.27 1019.14 1019.18 1019.07 1019.01 1018.81 1018.80 1018.74 1018.57 1018.46 1018.37 1018.13 1018.01 1017.85 1017.64 1017.38 1017.20 1017.12 1016.99
1016.12 1016.57 1017.04 1017.47 1017.61 1017.75 1018.17 1018.52 1018.76 1018.88 1018.86 1018.72 1018.79 1018.71 1018.68 1018.57 1019.03 1019.28 1019.26 1019.18 1019.46 1019.35 1019.36 1019.23 1019.55 1019.45 1019.39 1019.25 1019.16 1019.07 1019.01 1018.95 1018.87 1018.77 1018.60 1018.38 1018.17 1018.04 1017.82 1017.57 1017.25 1017.11 1017.05
1015.86 1016.38 1016.92 1017.48 1017.75 1018.01 1018.28 1018.54 1018.83 1018.95 1019.09 1019.07 1019.06 1018.80 1018.71 1018.78 1018.94 1019.32 1019.51 1019.58 1019.79 1019.70 1019.47 1019.36 1019.65 1019.52 1019.55 1019.45 1019.37 1019.26 1019.20 1019.18 1019.12 1019.00 1018.73 1018.53 1018.26 1018.08 1017.86 1017.59 1017.34 1017.03 1017.00
1015.47 1016.14 1016.81 1017.39 1017.78 1018.24 1018.57 1018.83 1019.03 1019.29 1019.46 1019.39 1019.21 1019.09 1018.96 1018.81 1019.06 1019.38 1019.45 1019.70 1019.93 1019.86 1019.74 1019.84 1019.88 1019.78 1019.66 1019.62 1019.55 1019.41 1019.36 1019.34 1019.24 1019.08 1018.93 1018.71 1018.42 1018.14 1017.82 1017.54 1017.29 1016.94 1016.68
1015.26 1015.64 1016.53 1017.34 1017.77 1018.29 1018.71 1018.95 1019.32 1019.45 1019.74 1019.55 1019.29 1019.14 1019.10 1019.04 1019.11 1019.17 1019.59 1019.88 1019.85 1019.94 1020.18 1020.24 1020.27 1020.17 1020.05 1019.95 1019.79 1019.55 1019.47 1019.41 1019.33 1019.29 1019.09 1018.80 1018.48 1018.17 1017.81 1017.41 1017.13 1016.86 1016.47
1015.27 1015.69 1016.61 1017.22 1017.69 1018.25 1018.69 1019.04 1019.33 1019.61 1019.75 1019.77 1019.53 1019.35 1019.34 1019.11 1019.22 1019.44 1019.68 1019.75 1019.94 1020.11 1020.28 1020.38 1020.49 1020.53 1020.36 1020.20 1020.08 1019.86 1019.63 1019.51 1019.43 1019.35 1019.23 1018.99 1018.64 1018.29 1017.85 1017.45 1017.09 1016.69 1016.35
1015.02 1015.66 1016.50 1017.13 1017.73 1018.01 1018.45 1018.94 1019.38 1019.84 1020.04 1019.87 1019.93 1019.96 1019.81 1019.68 1019.56 1019.63 1019.83 1019.95 1020.03 1020.17 1020.25 1020.43 1020.51 1020.66 1020.65 1020.33 1020.17 1019.88 1019.74 1019.68 1019.50 1019.42 1019.25 1018.89 1018.54 1018.21 1017.81 1017.38 1016.94 1016.51 1016.16
1015.01 1015.80 1016.35 1017.08 1017.65 1017.99 1018.45 1018.89 1019.30 1020.02 1020.31 1020.22 1020.48 1020.72 1020.68 1020.52 1020.11 1020.08 1020.11 1020.27 1020.62 1020.58 1020.56 1020.56 1020.55 1020.57 1020.50 1020.37 1020.20 1019.99 1019.90 1019.72 1019.50 1019.40 1019.13 1018.78 1018.36 1017.96 1017.53 1017.11 1016.67 1016.29 1015.92
1014.80 1015.49 1016.17 1016.91 1017.72 1017.85 1018.42 1018.94 1019.25 1019.68 1020.33 1020.63 1020.49 1020.63 1021.10 1021.42 1021.38 1020.62 1020.60 1020.58 1020.80 1021.04 1021.05 1020.86 1020.63 1020.56 1020.40 1020.27 1020.09 1020.06 1019.85 1019.74 1019.51 1019.32 1018.97 1018.59 1018.16 1017.67 1017.15 1016.67 1016.26 1015.85 1015.49
1014.92 1015.43 1016.11 1016.85 1017.60 1018.01 1018.36 1018.87 1019.16 1019.52 1019.84 1020.52 1020.68 1020.65 1020.89 1021.25 1021.70 1021.75 1021.16 1021.02 1021.04 1021.10 1021.05 1020.91 1020.79 1020.55 1020.28 1020.11 1019.97 1019.85 1019.65 1019.54 1019.43 1019.11 1018.72 1018.31 1017.83 1017.26 1016.71 1016.23 1015.75 1015.35 1015.21
1014.90 1015.52 1016.09 1016.94 1017.71 1018.18 1018.42 1018.72 1019.15 1019.49 1019.81 1020.43 1020.75 1021.10 1021.24 1021.39 1021.67 1022.15 1022.26 1021.70 1021.30 1021.08 1021.10 1020.97 1020.70 1020.65 1020.36 1020.15 1020.10 1019.92 1019.53 1019.43 1019.13 1018.76 1018.34 1017.94 1017.35 1016.77 1016.17 1015.68 1015.40 1015.30 1015.11
1014.99 1015.57 1016.19 1016.86 1017.52 1017.96 1018.60 1018.71 1019.16 1019.51 1019.97 1020.35 1020.77 1021.09 1021.37 1021.73 1022.05 1022.41 1022.70 1022.34 1022.08 1021.39 1021.11 1020.81 1020.64 1020.70 1020.54 1020.50 1020.24 1020.04 1019.80 1019.46 1019.08 1018.67 1018.21 1017.74 1017.09 1016.43 1015.92 1015.63 1015.52 1015.08 1014.80
1014.77 1015.32 1016.10 1016.49 1017.52 1018.10 1018.69 1018.82 1019.19 1019.54 1019.94 1020.37 1020.72 1021.15 1021.33 1021.60 1021.89 1022.20 1022.61 1022.59 1022.49 1021.78 1021.27 1020.89 1020.65 1020.54 1020.47 1020.54 1020.34 1019.86 1019.58 1019.33 1018.90 1018.40 1017.90 1017.23 1016.70 1016.25 1015.92 1015.58 1015.21 1014.77 1014.30
1014.36 1015.01 1015.92 1016.71 1017.48 1017.87 1018.71 1019.02 1019.35 1019.68 1019.96 1020.29 1020.70 1021.00 1021.32 1021.55 1021.77 1022.02 1022.33 1022.64 1022.52 1022.21 1021.64 1021.26 1020.68 1020.59 1020.47 1020.29 1019.90 1019.51 1019.42 1019.07 1018.64 1018.06 1017.51 1016.90 1016.54 1016.22 1015.89 1015.34 1014.69 1014.22 1013.71
1014.30 1015.06 1015.89 1016.75 1017.40 1017.98 1018.83 1019.03 1019.36 1019.75 1020.04 1020.32 1020.61 1020.93 1021.31 1021.58 1021.73 1021.89 1022.04 1022.26 1022.59 1022.64 1021.79 1021.17 1021.09 1020.44 1020.36 1020.08 1019.75 1019.35 1019.10 1018.77 1018.13 1017.57 1017.03 1016.55 1016.08 1015.71 1015.10 1014.52 1014.00 1013.55 1013.22
1014.12 1014.99 1015.76 1016.68 1017.31 1018.24 1018.90 1019.16 1019.50 1019.82 1020.07 1020.29 1020.57 1020.92 1021.27 1021.47 1021.56 1021.74 1021.81 1021.95 1022.21 1022.37 1022.12 1021.13 1020.91 1020.52 1020.18 1019.77 1019.40 1019.02 1018.68 1018.13 1017.75 1017.16 1016.46 1015.96 1015.38 1014.73 1014.17 1013.69 1013.28 1012.86 1012.46
1014.16 1015.09 1015.84 1016.61 1017.54 1018.28 1019.02 1019.22 1019.59 1019.90 1020.17 1020.28 1020.60 1020.90 1021.17 1021.26 1021.44 1021.61 1021.68 1021.75 1021.92 1022.00 1021.80 1021.03 1020.72 1020.37 1020.08 1019.64 1019.17 1018.72 1018.21 1017.78 1017.13 1016.49 1015.89 1015.17 1014.53 1014.08 1013.56 1013.05 1012.60 1012.03 1011.61
1014.41 1015.30 1015.96 1016.81 1017.73 1018.29 1018.91 1019.13 1019.49 1019.87 1020.12 1020.34 1020.60 1020.85 1021.01 1021.07 1021.30 1021.38 1021.48 1021.64 1021.74 1021.62 1021.53 1020.84 1020.51 1020.11 1019.72 1019.20 1018.77 1018.39 1017.77 1017.11 1016.63 1016.02 1015.34 1014.62 1014.01 1013.59 1013.06 1012.47 1011.82 1011.26 1010.63
1014.54 1015.58 1016.11 1017.08 1017.77 1018.41 1018.84 1019.25 1019.46 1019.79 1020.03 1020.31 1020.42 1020.62 1020.83 1020.94 1021.06 1021.08 1021.19 1021.29 1021.21 1020.91 1020.85 1020.60 1019.92 1019.56 1019.16 1018.78 1018.29 1017.73 1017.15 1016.51 1016.11 1015.44 1014.81 1014.05 1013.56 1012.93 1012.28 1011.72 1011.11 1010.50 1010.04
1014.80 1015.63 1016.35 1017.07 1017.82 1018.48 1018.97 1019.46 1019.76 1020.00 1020.13 1020.34 1020.42 1020.38 1020.61 1020.69 1020.77 1020.72 1020.72 1020.68 1020.51 1020.56 1020.42 1020.13 1019.69 1019.25 1018.96 1018.37 1017.90 1017.21 1016.29 1016.03 1015.30 1014.76 1014.19 1013.43 1012.92 1012.21 1011.74 1011.14 1010.59 1009.96 1009.45
1015.08 1015.66 1016.64 1017.14 1018.06 1018.64 1019.13 1019.53 1019.94 1020.11 1020.30 1020.45 1020.42 1020.33 1020.48 1020.45 1020.28 1020.05 1019.95 1020.13 1020.16 1019.96 1019.80 1019.74 1019.52 1018.98 1018.42 1017.68 1017.36 1016.80 1016.12 1015.31 1014.66 1014.11 1013.19 1012.86 1012.37 1011.61 1011.08 1010.33 1009.74 1009.12 1008.54
1015.83 1016.37 1017.19 1017.44 1018.25 1018.75 1019.18 1019.72 1019.99 1020.16 1020.35 1020.39 1020.50 1020.33 1020.38 1020.12 1019.85 1019.71 1019.62 1019.44 1019.29 1019.16 1019.22 1019.26 1018.92 1018.41 1017.91 1017.37 1016.88 1016.44 1015.74 1014.99 1013.54 1013.15 1012.77 1011.95 1011.51 1010.67 1010.10 1009.51 1008.81 1007.99 1007.21
1016.90 1017.15 1017.79 1017.97 1018.42 1018.90 1019.41 1019.81 1019.96 1020.12 1020.22 1020.40 1020.42 1020.35 1020.12 1019.77 1019.54 1019.36 1019.17 1018.92 1018.76 1018.76 1018.66 1018.41 1018.20 1017.93 1017.29 1016.76 1016.27 1015.72 1015.09 1014.48 1013.67 1012.77 1012.34 1010.97 1010.55 1009.71 1009.13 1008.43 1007.81 1006.92 1006.16
1017.78 1017.65 1018.25 1018.46 1018.76 1019.15 1019.56 1019.70 1019.77 1019.98 1020.22 1020.37 1020.28 1020.11 1019.97 1019.68 1019.34 1018.85 1018.60 1018.59 1018.45 1018.31 1018.12 1017.83 1017.36 1016.92 1016.43 1015.86 1015.47 1014.95 1014.29 1013.76 1013.00 1012.27 1011.79 1010.39 1009.80 1008.78 1008.03 1007.61 1006.77 1005.87 1005.09
1018.43 1018.22 1018.88 1018.94 1019.06 1019.36 1019.45 1019.48 1019.65 1019.99 1020.30 1020.26 1020.12 1020.01 1019.71 1019.27 1018.90 1018.50 1018.16 1018.18 1017.99 1017.79 1017.40 1016.85 1016.32 1015.98 1015.55 1015.14 1014.67 1014.37 1014.00 1013.63 1012.33 1011.56 1010.82 1010.28 1008.99 1008.12 1007.39 1006.24 1005.42 1004.68 1004.11
1018.58 1018.90 1019.04 1018.93 1019.16 1019.32 1019.21 1019.40 1019.69 1019.94 1020.24 1020.34 1020.14 1019.75 1019.37 1018.95 1018.50 1018.04 1017.64 1017.64 1017.53 1017.31 1016.82 1016.37 1016.03 1015.60 1015.17 1014.85 1014.31 1014.17 1013.78 1013.38 1012.44 1010.88 1009.69 1009.67 1008.87 1008.34 1006.13 1004.93 1004.38 1004.08 1003.39
Wind_Speed
5 5 4 4 4 4 4 4 3 3 4 4 5 3 4 5 6 3 1 11 11 11 11 11 11 12 11 11 11 11 11 11 12 12 12 13 13 13 12 12 10 10 11
5 5 5 5 5 5 4 4 3 3 4 4 4 4 3 4 5 5 3 5 10 10 10 11 11 11 12 12 12 12 12 12 12 13 13 13 12 13 13 13 13 9 11
8 7 5 5 4 4 6 4 4 4 5 3 4 4 3 2 4 5 4 4 5 8 10 11 11 10 12 12 11 12 11 12 13 13 14 14 13 14 14 14 15 11 11
10 7 6 5 5 5 4 4 3 4 3 3 3 3 1 2 4 6 5 4 3 3 6 9 11 11 12 11 13 11 12 13 12 12 13 14 14 14 15 15 15 16 12
10 9 7 5 6 5 4 3 3 3 2 3 3 2 0 3 3 3 5 4 4 5 4 9 12 12 12 12 14 12 13 12 12 13 13 14 16 16 17 16 15 15 17
8 9 6 6 5 5 5 3 3 4 2 2 2 3 1 2 3 4 4 4 4 6 5 5 4 4 9 11 13 13 13 12 11 13 15 16 16 17 17 17 18 18 17
11 10 7 7 5 5 6 4 3 4 5 4 3 3 3 4 2 2 3 3 4 4 4 3 2 2 2 9 11 11 11 13 13 13 16 17 18 19 19 20 20 20 19
9 8 9 7 6 6 6 5 4 2 2 4 3 2 2 4 4 3 3 3 4 3 5 4 4 2 1 2 4 8 9 13 13 15 17 19 20 21 21 21 21 21 22
9 10 9 8 6 6 5 5 4 5 3 3 5 4 3 1 2 3 3 4 5 4 3 4 4 4 4 4 2 2 7 13 13 16 19 22 22 22 22 22 23 23 22
8 10 9 9 7 5 7 5 4 4 4 3 2 3 3 3 2 3 3 2 2 4 4 4 5 5 6 4 4 4 9 13 13 18 22 23 23 24 24 24 24 24 23
9 11 11 9 7 5 5 7 6 6 3 3 2 1 3 3 3 2 4 4 4 3 3 4 5 4 6 5 3 5 12 14 18 22 24 25 26 27 27 26 26 25 25
7 10 10 7 8 7 5 6 5 7 5 4 3 2 2 2 1 1 2 3 4 3 3 4 4 4 5 5 8 14 15 17 20 22 25 27 27 27 26 26 26 27 27
9 10 10 11 6 6 5 6 6 6 5 4 4 3 2 2 2 2 2 3 3 3 3 3 1 4 3 3 4 16 16 20 24 26 26 25 26 25 26 27 28 28 28
10 12 10 8 9 8 5 6 4 4 5 4 5 3 2 1 1 2 3 2 4 3 2 5 3 1 3 5 13 22 7 22 24 24 26 25 26 26 28 28 28 29 28
9 12 11 10 9 8 6 6 4 5 4 4 4 3 2 1 1 1 1 2 3 4 5 3 2 4 4 5 8 9 7 18 24 26 25 26 27 28 27 26 26 27 27
13 13 12 11 9 7 6 6 4 4 5 2 2 4 2 1 1 1 1 1 2 4 4 2 2 4 5 7 10 11 11 22 21 25 25 28 26 26 25 27 28 28 28
13 12 12 11 9 7 6 6 5 5 4 3 2 3 3 2 1 1 1 2 2 2 5 4 2 3 4 7 9 9 10 9 10 24 26 26 26 27 28 28 29 30 30
12 12 11 10 8 7 6 6 5 4 3 2 2 2 3 2 2 2 2 3 2 3 3 11 3 6 7 9 10 10 9 10 10 18 24 28 28 28 29 29 29 29 29
13 11 10 9 8 7 6 5 5 4 3 1 1 2 4 4 4 3 2 3 3 4 4 5 9 6 7 8 9 9 9 9 8 19 23 27 27 27 28 27 28 28 29
13 11 10 9 7 6 6 5 5 4 4 3 3 2 3 3 4 4 4 6 5 4 4 5 6 7 7 7 5 8 10 7 11 10 16 22 23 25 26 26 28 27 27
11 12 10 9 7 6 5 5 4 4 4 4 5 4 2 3 8 8 4 4 5 4 3 3 6 8 6 9 9 8 10 11 11 11 9 8 7 10 11 19 21 26 26
10 10 7 8 7 6 10 8 5 3 3 4 5 5 5 7 7 10 12 15 12 3 2 3 7 9 10 10 8 8 11 12 11 5 4 12 9 11 10 9 22 28 30
7 8 6 7 7 6 9 7 6 3 4 4 5 5 5 4 8 5 10 14 14 14 14 11 10 9 11 11 9 11 10 9 12 11 11 13 11 12 10 11 26 30 30
5 6 5 6 6 6 8 6 8 5 4 5 5 5 4 6 6 8 6 5 6 6 7 6 7 9 9 11 12 11 12 11 11 10 9 13 11 14 11 9 27 30 27
4 5 4 6 6 4 7 6 5 4 3 5 5 5 6 6 12 16 8 4 6 5 9 18 19 20 22 23 18 9 8 9 12 11 11 10 8 11 13 13 12 22 22
5 4 4 5 7 4 4 2 3 2 3 3 5 6 12 10 16 17 8 5 5 6 8 8 5 10 12 11 18 8 7 9 11 10 4 4 10 9 8 6 6 8 10
Wind_Direction
168 158 175 144 136 123 97 75 63 51 43 29 34 38 62 68 117 101 79 90 87 79 69 60 51 46 37 30 25 23 18 18 14 10 7 4 359 352 345 341 335 340 339
144 138 133 133 118 112 103 94 70 56 48 35 33 26 58 76 112 131 106 90 96 83 74 59 43 38 31 24 21 19 15 10 6 0 355 353 348 345 339 333 325 324 328
149 142 128 120 115 105 105 88 67 57 44 15 24 26 39 70 82 130 116 100 86 77 68 53 36 34 23 20 15 11 12 9 0 352 349 347 346 342 335 330 323 305 311
148 138 126 125 125 111 104 87 72 56 44 25 348 348 29 49 102 128 127 123 125 94 58 56 38 37 17 14 4 5 9 1 357 357 354 348 343 338 333 328 321 311 293
151 134 133 134 127 114 108 107 67 104 35 349 329 1 28 69 124 100 84 113 109 96 74 52 48 28 12 5 358 359 356 353 356 359 350 350 346 340 335 330 322 312 303
137 127 128 129 127 120 112 102 106 59 62 335 341 38 342 81 116 107 105 125 103 93 90 73 48 17 18 6 356 345 344 351 354 349 348 341 335 332 327 323 318 313 306
143 137 137 131 137 129 136 139 113 86 22 356 48 11 7 19 42 78 117 103 107 108 92 82 79 55 27 8 347 337 347 339 341 344 337 336 335 332 327 321 316 308 300
137 138 142 139 143 125 114 110 122 116 64 15 106 91 42 342 358 29 53 62 62 39 30 19 3 53 11 348 332 350 340 335 331 328 332 330 329 324 319 315 309 304 300
145 141 137 136 139 128 128 128 124 125 134 25 51 130 78 199 323 338 30 48 71 35 12 351 357 326 334 321 350 340 329 329 320 322 326 325 320 316 311 310 306 303 299
139 135 132 136 138 132 130 138 129 127 122 125 44 46 81 141 133 329 329 339 4 20 352 347 345 316 298 291 282 282 314 322 316 318 321 320 316 312 309 306 303 303 312
140 139 137 134 138 126 139 126 122 109 102 118 118 92 52 45 70 131 271 309 348 345 332 327 310 336 344 335 317 304 335 324 319 318 318 316 312 309 305 306 306 307 302
142 142 141 133 143 134 150 128 122 115 113 109 111 107 132 140 175 128 270 283 270 289 311 303 316 345 342 15 3 347 331 319 315 313 310 307 302 304 306 308 304 303 300
159 154 152 141 144 124 141 124 124 124 128 125 137 137 129 147 153 168 178 268 275 296 298 289 327 350 360 344 326 332 329 324 316 311 306 304 306 311 312 307 303 297 294
164 150 143 138 134 128 133 130 122 132 131 130 135 134 145 184 164 168 189 191 304 270 279 253 298 55 329 328 323 322 319 316 310 306 305 303 309 308 304 297 296 294 295
155 144 136 133 132 130 148 141 137 135 131 139 153 142 148 163 102 123 167 171 180 293 298 297 309 325 313 290 293 308 306 306 304 306 305 305 304 302 297 296 296 295 300
152 144 138 138 129 144 149 137 130 141 134 131 146 152 151 170 145 261 258 226 198 210 263 232 281 287 296 309 306 315 303 303 305 302 303 304 301 297 300 300 300 298 290
143 139 135 134 142 141 146 128 138 145 146 135 120 159 179 198 256 285 279 272 268 230 274 295 279 300 297 293 301 296 296 291 291 303 305 304 303 306 302 304 299 296 295
140 137 141 133 137 134 146 139 131 123 143 157 198 186 227 202 237 243 243 275 242 262 256 300 288 300 289 289 287 292 286 294 293 295 302 304 303 304 300 297 298 295 293
129 135 131 132 130 135 125 114 116 109 97 116 214 212 238 233 259 250 248 243 252 279 267 273 293 296 290 296 293 279 286 291 281 296 300 296 302 300 300 300 298 298 301
136 130 129 128 121 119 103 92 83 76 55 31 5 345 277 257 254 252 234 249 260 261 256 271 290 296 291 291 270 295 302 296 296 293 287 287 292 296 297 297 298 296 295
122 116 126 112 116 114 115 101 87 66 36 354 344 339 299 270 299 291 274 248 248 253 264 270 286 294 297 305 304 304 294 301 294 288 280 275 282 286 285 290 290 292 289
113 114 120 116 120 116 112 97 91 63 22 356 324 314 288 286 292 296 301 299 297 269 224 264 292 298 298 300 302 296 295 298 299 268 275 292 289 288 286 281 285 290 294
109 109 113 113 111 113 115 96 71 52 15 333 312 300 300 286 300 281 279 288 294 298 295 301 295 286 289 292 290 286 283 289 291 294 293 289 294 285 283 283 289 291 292
118 116 112 108 116 123 113 88 65 46 7 332 320 321 306 293 293 293 255 259 252 251 266 271 266 279 269 279 288 297 297 297 288 289 285 285 291 285 289 282 286 289 288
130 94 117 109 111 126 122 84 77 52 354 332 326 315 305 306 314 306 307 265 270 263 281 292 297 299 304 305 304 307 300 304 296 296 293 287 282 288 290 282 271 275 284
120 123 121 114 137 134 99 55 95 114 349 291 279 280 306 309 310 308 307 303 298 280 277 282 279 293 295 282 298 291 283 285 287 298 272 286 297 303 296 249 271 282 278